Home   Weather   Rabat   Past weeks
Flag for Morocco

Past Weather in Rabat, Morocco — Yesterday and Last 2 Weeks

Now
54 °F

Clear.


Feels Like: 53 °F
Forecast: 68 / 52 °F
Wind: 3 mph from Southeast

Location: Rabat-Sale

Current Time: Feb 16, 2019 at 10:32:46 am

Latest Report: Feb 16, 2019 at 10:00 am


Visibility: 3 mi

Pressure: 30.09 "Hg

Humidity: 88%

Dew Point: 50 °F

Location of RabatLocation

Past Weather in Rabat — Graph

°F

Rabat Temperature Yesterday

Maximum temperature yesterday: 66 °F (at 2:00 pm)
Minimum temperature yesterday: 43 °F (at 5:00 am)
Average temperature yesterday: 54 °F

High & Low Weather Summary for the Past Weeks

 TemperatureHumidityPressure
High75 °F (Feb 14, 1:00 pm)100% (Feb 8, 10:00 am)30.36 "Hg (Feb 8, 10:00 am)
Low36 °F (Feb 4, 7:30 am)16% (Feb 14, 5:30 pm)29.80 "Hg (Feb 1, 1:00 pm)
Average53 °F79%30.21 "Hg
* Reported Feb 1 9:00 am — Feb 16 9:30 am, Rabat. Weather by CustomWeather, © 2019

Note: Actual official high and low records may vary slightly from our data, if they occured in-between our weather recording intervals... More about our weather records

Advertising

Rabat Weather History for the Previous 24 Hours

Scroll right to see more
 ConditionsComfort  
Time TempWeatherWind HumidityBarometerVisibility
9:30 am
Sat, Feb 16
52 °FClear.2 mph94%30.07 "Hg3 mi
9:00 am52 °FClear.2 mph88%30.07 "Hg3 mi
8:30 am52 °FClear.3 mph88%30.04 "Hg4 mi
7:30 am52 °FClear.3 mph94%30.04 "Hg4 mi
7:00 am52 °FPassing clouds.3 mph88%30.04 "Hg4 mi
6:30 am52 °FPassing clouds.3 mph94%30.04 "Hg2 mi
6:00 am50 °FPassing clouds.3 mph94%30.04 "Hg2 mi
5:30 am50 °FPassing clouds.2 mph94%30.04 "Hg2 mi
5:00 am52 °FPassing clouds.1 mph88%30.04 "Hg2 mi
4:30 am52 °FPassing clouds.3 mph88%30.04 "Hg4 mi
4:00 am52 °FPassing clouds.2 mph88%30.04 "Hg2 mi
3:30 am52 °FPassing clouds.2 mph94%30.04 "HgN/A
3:00 am52 °FPassing clouds.2 mph94%30.04 "HgN/A
2:30 am52 °FPassing clouds.2 mph94%30.04 "Hg4 mi
2:00 am54 °FPassing clouds.1 mph88%30.04 "Hg4 mi
1:30 am52 °FPassing clouds.No wind94%30.04 "Hg4 mi
1:00 am54 °FPassing clouds.3 mph88%30.04 "Hg4 mi
12:30 am54 °FPassing clouds.5 mph88%30.04 "Hg4 mi
12:00 am52 °FPassing clouds.3 mph94%30.04 "Hg4 mi
11:30 pm
Fri, Feb 15
52 °FPassing clouds.2 mph94%30.04 "Hg4 mi
11:00 pm52 °FPassing clouds.3 mph94%30.04 "Hg4 mi
10:30 pm52 °FClear.2 mph94%30.04 "Hg4 mi
10:00 pm54 °FClear.3 mph88%30.04 "Hg4 mi
9:30 pm54 °FClear.2 mph88%30.04 "Hg4 mi
9:00 pm54 °FClear.2 mph88%30.04 "Hg4 mi
8:00 pm55 °FClear.No wind88%30.04 "Hg3 mi
7:30 pm57 °FClear.No wind82%30.04 "Hg3 mi
7:00 pm59 °FFog.2 mph82%30.04 "Hg2 mi
6:30 pm61 °FFog.6 mph77%30.04 "Hg2 mi
6:00 pm61 °FFog.7 mph63%30.04 "Hg2 mi
5:30 pm64 °FFog.5 mph56%30.04 "Hg2 mi
5:00 pm64 °FFog.3 mph64%30.04 "Hg2 mi
4:30 pm63 °FFog.5 mph68%30.04 "Hg2 mi
4:00 pm64 °FFog.5 mph64%30.04 "Hg2 mi
3:30 pm64 °FClear.7 mph68%30.04 "Hg3 mi
3:00 pm64 °FClear.6 mph64%30.07 "Hg3 mi
2:30 pm66 °FClear.6 mph60%30.07 "Hg3 mi
2:00 pm66 °FClear.5 mph64%30.09 "Hg3 mi
1:00 pm64 °FClear.3 mph60%30.12 "Hg3 mi
12:30 pm63 °FPartly sunny.2 mph52%30.15 "Hg5 mi
12:00 pm61 °FScattered clouds.3 mph55%30.15 "Hg5 mi
11:30 am59 °FScattered clouds.3 mph59%30.15 "Hg5 mi
11:00 am59 °FPassing clouds.2 mph63%30.15 "Hg5 mi
10:30 am55 °FPassing clouds.5 mph72%30.15 "Hg5 mi
10:00 am52 °FPassing clouds.1 mph82%30.15 "Hg5 mi
Weather by CustomWeather, © 2019

See weather overview